Location: Ciserano
(45.5833°N, 9.6000°E)
Time: 12:06:42
(UTC+00:00)

Meteor 1-10 Rocket - Pass Details

Date: 29 November 2020
Orbit: 836 x 910 km, 81.3° (Epoch: 26 January)

Event Time Altitude Azimuth Distance (km) Brightness Sun altitude
Rises 05:12:57 0° 347° (NNW) 3,399 7.1 -14.7°
Reaches altitude 10° 05:15:22 10° 346° (NNW) 2,462 6.3 -14.3°
Maximum altitude 05:20:55 76° 262° (W) 873 4.1 -13.4°
Drops below altitude 10° 05:26:31 10° 178° (S) 2,474 6.9 -12.4°
Sets 05:28:56 0° 176° (S) 3,416 7.7 -12.0°
